• In Czech Republic
  • List of Countries
  • For 7 days
  • Water Temperature
  • Satellite Maps
  • Weather Map
  • Weather Widgets
  • user-avatar
    Login

    Hourly Weather Gold Coast

    Today, 21 November, Tuesday

    Time Temperature Precipitation Wind Pressure Humidity
    00:00 +16°C° 0.4 mm 5 mps 760 mmHg 92%
    01:00 +16°C° 0.4 mm 5 mps 760 mmHg 93%
    02:00 +16°C° 0.4 mm 5 mps 760 mmHg 93%
    03:00 +16°C° 0.4 mm 5 mps 760 mmHg 93%
    04:00 +16°C° 0 mm 5 mps 759 mmHg 94%
    05:00 +17°C° 0.3 mm 5 mps 760 mmHg 90%
    06:00 +19°C° 0.3 mm 5 mps 760 mmHg 87%
    07:00 +20°C° 0.3 mm 5 mps 760 mmHg 84%
    08:00 +21°C° 0.4 mm 6 mps 760 mmHg 76%
    09:00 +23°C° 0.4 mm 6 mps 760 mmHg 68%
    10:00 +24°C° 0 mm 6 mps 760 mmHg 63%
    11:00 +24°C° 0.4 mm 6 mps 760 mmHg 63%
    12:00 +24°C° 0.4 mm 6 mps 760 mmHg 63%
    13:00 +24°C° 0.4 mm 6 mps 759 mmHg 63%
    14:00 +24°C° 0.3 mm 6 mps 759 mmHg 64%
    15:00 +23°C° 0.3 mm 7 mps 759 mmHg 65%
    16:00 +23°C° 0 mm 7 mps 759 mmHg 64%
    17:00 +21°C° 0.1 mm 7 mps 759 mmHg 68%
    18:00 +20°C° 0.1 mm 6 mps 759 mmHg 73%
    19:00 +19°C° 0.1 mm 6 mps 760 mmHg 78%
    20:00 +17°C° 0.1 mm 5 mps 760 mmHg 81%
    21:00 +17°C° 0.1 mm 5 mps 760 mmHg 84%
    22:00 +16°C° 0.1 mm 5 mps 760 mmHg 88%
    23:00 +16°C° 0.1 mm 5 mps 759 mmHg 89%

    Tomorrow, 22 November, Wednesday

    Time Temperature Precipitation Wind Pressure Humidity
    00:00 +16°C° 0.1 mm 5 mps 759 mmHg 90%
    01:00 +15°C° 0.1 mm 5 mps 759 mmHg 91%
    02:00 +15°C° 0.2 mm 4 mps 758 mmHg 91%
    03:00 +15°C° 0.2 mm 4 mps 758 mmHg 92%
    04:00 +15°C° 0.2 mm 4 mps 758 mmHg 93%
    05:00 +17°C° 0.2 mm 4 mps 758 mmHg 88%
    06:00 +18°C° 0.2 mm 4 mps 758 mmHg 83%
    07:00 +20°C° 0.2 mm 4 mps 758 mmHg 78%
    08:00 +21°C° 0.5 mm 4 mps 758 mmHg 74%
    09:00 +22°C° 0.5 mm 4 mps 758 mmHg 70%
    10:00 +25°C° 0.5 mm 4 mps 758 mmHg 66%
    11:00 +25°C° 0.7 mm 4 mps 758 mmHg 68%
    12:00 +25°C° 0.7 mm 4 mps 757 mmHg 69%
    13:00 +25°C° 0.7 mm 4 mps 757 mmHg 70%
    14:00 +23°C° 0.5 mm 4 mps 757 mmHg 71%
    15:00 +23°C° 0.5 mm 4 mps 757 mmHg 71%
    16:00 +23°C° 0.5 mm 4 mps 756 mmHg 72%
    17:00 +22°C° 0.4 mm 3 mps 757 mmHg 76%
    18:00 +20°C° 0.4 mm 3 mps 757 mmHg 81%
    19:00 +19°C° 0.4 mm 3 mps 757 mmHg 85%
    20:00 +19°C° 0.1 mm 3 mps 758 mmHg 87%
    21:00 +18°C° 0.1 mm 2 mps 758 mmHg 88%
    22:00 +18°C° 0.1 mm 2 mps 758 mmHg 89%
    23:00 +18°C° 0.1 mm 2 mps 758 mmHg 90%

    Day after tomorrow, 23 November, Thursday

    Time Temperature Precipitation Wind Pressure Humidity
    00:00 +17°C° 0.1 mm 2 mps 757 mmHg 91%
    01:00 +17°C° 0.1 mm 3 mps 757 mmHg 92%
    02:00 +17°C° 0.1 mm 3 mps 757 mmHg 92%
    03:00 +17°C° 0.1 mm 3 mps 757 mmHg 93%
    04:00 +16°C° 0.1 mm 3 mps 757 mmHg 94%
    05:00 +18°C° 0.1 mm 3 mps 757 mmHg 91%
    06:00 +19°C° 0.1 mm 3 mps 757 mmHg 87%
    07:00 +20°C° 0.1 mm 3 mps 758 mmHg 84%
    08:00 +22°C° 0 mm 3 mps 758 mmHg 73%
    09:00 +25°C° 0 mm 3 mps 758 mmHg 62%
    10:00 +28°C° 0 mm 3 mps 758 mmHg 51%
    11:00 +28°C° 0.1 mm 4 mps 757 mmHg 52%
    12:00 +28°C° 0.1 mm 4 mps 757 mmHg 54%
    13:00 +27°C° 0.1 mm 5 mps 756 mmHg 56%
    14:00 +27°C° 0.1 mm 5 mps 756 mmHg 58%
    15:00 +27°C° 0.1 mm 4 mps 756 mmHg 60%
    16:00 +26°C° 0.1 mm 4 mps 756 mmHg 62%
    17:00 +25°C° 0 mm 4 mps 756 mmHg 69%
    18:00 +22°C° 0 mm 3 mps 757 mmHg 76%
    19:00 +20°C° 0 mm 3 mps 757 mmHg 82%
    20:00 +20°C° 0 mm 3 mps 758 mmHg 85%
    21:00 +19°C° 0 mm 2 mps 758 mmHg 87%
    22:00 +19°C° 0 mm 2 mps 758 mmHg 89%
    23:00 +18°C° 0 mm 2 mps 758 mmHg 90%

    24 November, Friday

    Time Temperature Precipitation Wind Pressure Humidity
    00:00 +18°C° 0 mm 2 mps 758 mmHg 91%
    01:00 +18°C° 0 mm 2 mps 757 mmHg 92%
    02:00 +18°C° 0 mm 2 mps 757 mmHg 93%
    03:00 +17°C° 0 mm 2 mps 757 mmHg 93%
    04:00 +17°C° 0 mm 3 mps 757 mmHg 94%
    05:00 +19°C° 0 mm 3 mps 757 mmHg 88%
    06:00 +21°C° 0 mm 3 mps 758 mmHg 82%
    07:00 +22°C° 0 mm 3 mps 758 mmHg 75%
    08:00 +25°C° 0 mm 3 mps 758 mmHg 66%
    09:00 +28°C° 0 mm 3 mps 758 mmHg 57%
    10:00 +30°C° 0 mm 3 mps 758 mmHg 48%
    11:00 +30°C° 0 mm 4 mps 757 mmHg 46%
    12:00 +32°C° 0 mm 4 mps 757 mmHg 45%
    13:00 +32°C° 0 mm 4 mps 757 mmHg 43%
    14:00 +30°C° 0 mm 4 mps 756 mmHg 47%
    15:00 +29°C° 0 mm 4 mps 756 mmHg 51%
    16:00 +29°C° 0 mm 5 mps 756 mmHg 55%
    17:00 +27°C° 0 mm 4 mps 757 mmHg 65%
    18:00 +25°C° 0 mm 4 mps 757 mmHg 74%
    19:00 +22°C° 0 mm 3 mps 758 mmHg 84%
    20:00 +21°C° 0 mm 3 mps 758 mmHg 86%
    21:00 +20°C° 0 mm 3 mps 759 mmHg 89%
    22:00 +20°C° 0 mm 2 mps 759 mmHg 92%
    23:00 +20°C° 0 mm 2 mps 758 mmHg 93%

    25 November, Saturday

    Time Temperature Precipitation Wind Pressure Humidity
    00:00 +19°C° 0 mm 2 mps 758 mmHg 94%
    01:00 +19°C° 0 mm 2 mps 757 mmHg 95%
    02:00 +19°C° 0 mm 2 mps 757 mmHg 95%
    03:00 +19°C° 0 mm 3 mps 757 mmHg 96%
    04:00 +19°C° 0 mm 3 mps 757 mmHg 96%
    05:00 +20°C° 0 mm 3 mps 758 mmHg 92%
    06:00 +21°C° 0 mm 3 mps 758 mmHg 87%
    07:00 +22°C° 0 mm 3 mps 758 mmHg 83%
    08:00 +25°C° 0 mm 3 mps 758 mmHg 71%
    09:00 +27°C° 0 mm 4 mps 758 mmHg 59%
    10:00 +29°C° 0 mm 4 mps 758 mmHg 47%
    11:00 +30°C° 0 mm 4 mps 758 mmHg 44%
    12:00 +32°C° 0 mm 5 mps 757 mmHg 41%
    13:00 +33°C° 0 mm 5 mps 757 mmHg 38%
    14:00 +32°C° 0 mm 5 mps 756 mmHg 42%
    15:00 +30°C° 0 mm 6 mps 756 mmHg 45%
    16:00 +29°C° 0 mm 6 mps 756 mmHg 48%
    17:00 +27°C° 0 mm 5 mps 757 mmHg 59%
    18:00 +25°C° 0 mm 5 mps 757 mmHg 70%
    19:00 +22°C° 0 mm 4 mps 758 mmHg 80%
    20:00 +21°C° 0 mm 4 mps 758 mmHg 85%
    21:00 +21°C° 0 mm 4 mps 758 mmHg 89%
    22:00 +20°C° 0 mm 3 mps 758 mmHg 93%
    23:00 +20°C° 0 mm 3 mps 758 mmHg 94%

    26 November, Sunday

    Time Temperature Precipitation Wind Pressure Humidity
    00:00 +20°C° 0 mm 3 mps 758 mmHg 94%
    01:00 +20°C° 0 mm 3 mps 757 mmHg 95%
    02:00 +20°C° 0 mm 4 mps 757 mmHg 94%
    03:00 +19°C° 0 mm 4 mps 757 mmHg 94%
    04:00 +19°C° 0 mm 4 mps 757 mmHg 94%
    05:00 +20°C° 0 mm 4 mps 757 mmHg 89%
    06:00 +22°C° 0 mm 5 mps 758 mmHg 84%
    07:00 +23°C° 0 mm 5 mps 758 mmHg 78%
    08:00 +25°C° 0 mm 5 mps 758 mmHg 72%
    09:00 +27°C° 0 mm 5 mps 758 mmHg 67%
    10:00 +28°C° 0 mm 5 mps 758 mmHg 61%
    11:00 +29°C° 0.1 mm 5 mps 757 mmHg 58%
    12:00 +30°C° 0.1 mm 5 mps 757 mmHg 54%
    13:00 +32°C° 0.1 mm 5 mps 756 mmHg 51%
    14:00 +30°C° 0 mm 5 mps 756 mmHg 53%
    15:00 +30°C° 0 mm 5 mps 756 mmHg 55%
    16:00 +30°C° 0 mm 6 mps 756 mmHg 56%
    17:00 +28°C° 0 mm 5 mps 756 mmHg 65%
    18:00 +26°C° 0 mm 5 mps 757 mmHg 73%
    19:00 +23°C° 0 mm 5 mps 757 mmHg 81%
    20:00 +23°C° 0 mm 5 mps 758 mmHg 85%
    21:00 +22°C° 0 mm 5 mps 758 mmHg 89%
    22:00 +22°C° 0 mm 4 mps 758 mmHg 92%
    23:00 +21°C° 0 mm 4 mps 758 mmHg 93%
    Show more